Tracking 35035 objects as of 16-Aug-2026
HD Live streaming from Space Station
objects crossing your sky now

STARLINK-2499

Track STARLINK-2499 now!
10-day predictions
STARLINK-2499 is classified as:


NORAD ID: 48377
Int'l Code: 2021-038AA
Launch date: May 4, 2021
Source: United States (US)
Launch site: AIR FORCE EASTERN TEST RANGE (AFETR)
Your satellite tracking list
Your tracking list is empty




NASA's NSSDC Master Catalog

Two Line Element Set (TLE):
1 48377U 21038AA  26228.25557432 -.00000473  00000-0 -34944-5 0  9991
2 48377  53.1605 325.3334 0000998  71.6075 288.5035 15.31696628291679
Source of the keplerian elements: AFSPC